Location: Corralito
(10.2667°N, 66.9500°W)
Time: 10:16:34
(UTC+00:00)

GPS 2-15 Rocket1 - Pass Details

Date: 04 December 2023
Orbit: 617 x 666 km, 19.8° (Epoch: 02 March)

Event Time Altitude Azimuth Distance (km) Brightness Sun altitude
Exits shadow 08:11:51 12° 51° (NE) 1,843 5.8 -32.9°
Drops below altitude 10° 08:12:23 10° 55° (NE) 2,001 6.0 -32.8°
Sets 08:15:08 0° 69° (ENE) 2,919 7.2 -32.2°
